SCP
0 0 0 0 0 0 0 0 0 0 0 0 0 0 0 0 0 0 0 0 0 0 0 0 0 0 0 0 0 0 0 0 0 0 0 0 0 0 0 0 0 0 0
0 0 0 0 0 0 0 0 0 0 0 0 0 0 0 0 0 0 0 0 0 0 0 0 0 0 0 0 0 0 0 0 0 0 0 0 0 0 0 0 0 0 0
0 0 0 0 0 0 0 0 0 0 0 0 0 0 0 0 0 0 0 0 0 0 0 0 0 0 0 0 0 0 0 0 0 0 0 0 0 0 0 0 0 0 0
0 0 0 0 0 0 0 0 0 0 0 0 0 0 0 0 0 0 0 0 0 0 0 0 0 0 0 0 0 0 0 0 0 0 0 0 0 0 0 0 0 0 0
0 0 0 0 0 0 0 0 0 0 0 0 0 0 0 0 0 0 0 0 0 0 0 0 0 0 0 0 0 0 0 0 0 0 0 0 0 0 0 0 0 0 0
0 0 0 0 0 0 0 0 0 0 0 0 0 0 0 0 0 0 0 0 0 0 0 0 0 0 0 0 0 0 0 0 0 0 0 0 0 0 0 0 0 0 0
0 0 0 0 0 0 0 0 0 0 0 0 0 0 0 0 0 0 0 0 0 0 0 0 0 0 0 0 0 0 0 0 0 0 0 0 0 0 0 0 0 0 0
0 0 0 0 0 0 0 0 0 0 0 0 0 0 0 0 0 0 0 0 0 0 0 0 0 0 0 0 0 0 0 0 0 0 0 0 0 0 0 0 0 0 0
0 0 0 0 0 0 0 0 0 0 0 0 0 0 0 0 0 0 0 0 0 0 0 0 0 0 0 0 0 0 0 0 0 0 0 0 0 0 0 0 0 0 0
0 0 0 0 0 0 0 0 0 0 0 0 0 0 0 0 0 0 0 0 0 0 0 0 0 0 0 0 0 0 0 0 0 0 0 0 0 0 0 0 0 0 0
0 0 0 0 0 0 0 0 0 0 0 0 0 0 0 0 0 0 0 0 0 0 0 0 0 0 0 0 0 0 0 0 0 0 0 0 0 0 0 0 0 0 0
0 0 0 0 0 0 -0 -0 -0 -0 0 0 0 0 0 0 0 0 0 0 0 0 0 0 0 0 0 0 0 0 0 0 0 0 0 0 0 0 0 0 0 0 0
0 0 0 -0 -0 -0 -0 -0 -0 0 0 0 0 0 0 0 0 0 0 0 0 0 0 0 0 0 0 0 0 0 0 0 0 0 0 0 0 0 0 0 0 0 0
0 0 -0 -0 -0 -0 -0 0 0 0 0 0 0 0 0 0 0 0 0 0 0 0 0 0 0 0 0 0 0 0 0 0 0 0 0 0 0 0 0 0 0 0 0
0 0 -0 -0 -0 -0 -0 -0 0 0 0 0 0 0 0 0 0 0 0 0 0 0 0 0 0 0 0 0 0 0 0 0 0 0 0 0 0 0 0 0 0 0 0
0 0 0 0 0 0 0 0 0 0 0 0 0 0 0 0 0 0 0 0 0 0 0 0 0 0 0 0 0 0 0 0 0 0 0 0 0 0 0 0 0 0 0
0 0 0 0 0 0 0 0 0 0 0 0 0 0 0 0 0 0 0 0 0 0 0 0 0 0 0 0 0 0 0 0 0 0 0 0 0 0 0 0 0 0 0
-0 0 0 0 0 0 0 0 0 0 0 0 0 0 0 0 0 0 0 0 0 0 0 0 0 0 0 0 0 0 0 0 0 0 0 0 0 0 0 0 0 0 0
0 0 0 0 0 0 0 0 0 0 0 0 0 0 0 0 0 0 0 0 0 0 0 0 0 0 0 0 0 0 0 0 0 0 0 0 0 0 0 0 0 0 0
0 0 0 0 0 0 0 0 0 0 0 0 0 0 0 0 0 0 0 0 0 0 0 0 0 0 0 0 0 0 0 0 0 0 0 0 0 0 0 0 0 0 0
0 0 0 0 0 0 0 0 0 0 0 0 0 0 0 0 0 0 0 0 0 0 0 0 0 0 0 0 0 0 0 0 0 0 0 0 0 0 0 0 0 0 0
0 0 0 0 0 0 0 0 0 0 0 0 0 0 0 0 0 0 0 0 0 0 0 0 0 0 0 0 0 0 0 0 0 0 0 0 0 0 0 0 0 0 0
0 0 0 0 0 0 0 0 0 0 0 0 0 0 0 0 0 0 0 0 0 0 0 0 0 0 0 0 0 0 0 0 0 0 0 0 0 0 0 0 0 0 0
0 0 0 0 0 0 0 0 0 0 0 0 0 0 0 0 0 0 0 0 0 0 0 0 0 0 0 0 0 0 0 0 0 0 0 0 0 0 0 0 0 0 0
0 0 0 0 0 0 -0 0 0 0 0 0 0 0 0 0 0 0 0 0 0 0 0 0 0 0 0 0 0 0 0 0 0 0 0 0 0 0 0 0 0 0 0
0 0 0 0 0 0 -0 0 0 0 0 0 0 0 0 0 0 0 0 0 0 0 0 0 0 0 0 0 0 0 0 0 0 0 0 0 0 0 0 0 0 0 0
Wind_Speed
2 3 3 3 3 3 3 3 2 2 3 3 3 3 3 3 3 3 3 3 3 3 3 2 2 1 1 1 0 1 1 1 2 0 0 0 0 1 1 1 1 1 2
2 3 2 2 3 3 3 3 3 3 3 3 3 3 3 4 3 3 3 3 3 3 3 3 3 2 2 1 1 1 1 1 2 2 1 0 0 0 0 1 1 1 1
2 3 2 2 3 2 2 2 3 3 3 3 3 3 3 3 3 3 3 3 2 2 2 2 2 2 2 1 1 1 1 1 1 2 1 0 0 0 1 1 1 1 1
2 3 2 2 2 1 2 2 2 2 3 3 3 2 2 2 3 3 3 3 3 3 3 2 2 2 1 1 1 1 1 2 2 2 2 1 1 0 0 0 1 1 1
3 2 2 1 1 2 2 2 2 3 3 3 3 3 3 2 2 3 2 2 3 3 3 3 2 3 2 1 1 1 2 2 2 2 2 1 1 1 1 0 0 1 1
2 2 2 2 2 2 2 2 3 3 3 3 3 3 4 3 4 4 2 2 2 3 3 4 3 3 4 4 3 2 1 3 3 2 2 2 2 2 1 1 1 0 1
2 2 2 2 2 1 2 2 3 3 3 3 3 3 3 4 5 4 4 2 2 2 3 3 3 3 3 3 4 4 3 2 2 3 3 2 2 3 2 2 1 1 1
3 2 2 2 2 2 2 2 2 2 2 2 3 3 3 4 5 4 4 3 2 2 2 2 2 2 2 3 3 3 3 2 0 1 3 3 2 3 3 2 1 1 1
2 2 1 2 2 2 2 1 1 1 2 2 2 3 3 4 6 4 3 2 2 3 3 2 2 2 3 2 2 2 2 2 1 0 1 2 3 3 3 2 2 1 1
2 2 1 1 2 1 1 1 1 1 1 2 2 3 3 4 5 4 3 1 2 2 3 3 3 3 3 2 1 0 1 1 2 2 2 2 0 1 3 4 3 2 1
2 2 2 2 1 1 1 1 1 1 2 2 2 3 3 3 5 4 3 1 1 2 2 3 3 4 4 3 1 1 2 2 1 1 1 1 1 0 1 2 3 3 2
3 3 2 2 1 1 1 1 1 1 2 2 2 3 3 3 3 4 4 2 1 0 2 2 3 5 5 3 2 1 1 1 0 0 1 1 1 2 1 2 3 4 5
3 2 2 1 1 1 1 1 1 1 1 1 1 2 3 3 3 5 4 3 2 1 2 4 5 5 5 3 1 1 0 1 1 0 1 1 1 2 2 2 1 2 3
3 2 1 1 1 1 1 0 0 1 1 1 1 2 3 3 3 3 2 2 2 2 2 3 4 4 2 2 2 1 0 1 1 1 1 2 2 1 1 1 1 1 2
2 1 1 0 0 1 1 1 1 2 3 3 2 2 2 4 4 4 2 2 2 2 2 2 2 2 3 3 2 2 1 0 1 1 2 2 2 2 2 1 1 1 1
2 1 1 1 0 1 1 2 3 3 5 5 6 5 4 6 7 7 6 6 5 3 1 2 2 3 3 3 3 3 2 2 2 2 2 3 3 3 3 2 1 2 3
3 2 1 1 1 1 1 1 3 4 4 4 5 6 7 7 7 7 6 5 4 2 1 3 3 4 4 4 3 3 3 3 2 3 3 3 3 3 3 3 3 3 3
3 3 2 2 2 2 2 2 2 3 4 4 4 6 7 7 7 6 4 2 2 1 3 4 4 4 4 4 4 4 4 4 3 3 4 4 4 4 4 4 4 4 4
3 2 2 2 2 2 2 3 3 3 4 4 4 5 5 6 6 5 3 2 4 4 4 5 5 5 5 5 4 4 4 4 5 4 4 5 4 4 5 5 5 5 5
3 4 3 2 2 2 2 3 3 3 4 4 5 5 3 2 3 3 3 4 5 6 6 6 6 6 5 5 5 5 5 5 5 5 5 5 5 5 6 7 6 5 5
3 3 4 3 3 3 3 4 4 4 5 5 6 6 5 4 5 6 5 5 6 7 7 6 6 6 6 5 5 6 6 6 6 6 6 5 5 5 5 5 6 6 6
3 3 3 3 3 3 4 4 4 4 5 6 6 6 6 5 5 6 6 6 6 6 7 6 6 6 6 6 6 6 6 7 7 6 6 6 6 6 6 6 6 6 6
4 4 4 3 4 4 4 4 4 4 5 6 6 6 5 5 5 6 7 7 6 6 6 6 6 7 7 6 7 7 7 8 7 6 6 6 6 6 6 7 8 8 8
4 5 4 4 4 4 4 5 5 5 6 6 6 6 6 6 6 7 7 7 6 6 6 5 7 9 11 8 7 7 7 8 7 7 9 8 7 7 6 7 8 9 9
4 4 4 4 4 4 5 5 5 6 6 6 6 6 7 7 7 7 7 6 7 7 8 7 6 7 10 12 10 8 8 9 8 7 6 7 8 8 8 9 9 9 10
5 5 5 4 5 5 5 6 6 7 7 7 7 7 7 7 7 7 7 6 6 6 7 6 8 9 10 9 10 10 9 9 9 8 7 6 8 9 9 8 11 10 11
Wind_Direction
85 81 77 65 62 63 53 32 20 16 18 20 21 28 26 20 16 28 25 24 33 24 23 32 19 6 14 19 97 128 127 141 152 182 212 251 11 50 22 7 5 14 16
103 92 83 72 63 56 44 24 22 22 18 19 24 26 19 19 18 28 24 24 27 21 15 18 4 12 24 31 83 115 127 137 150 162 167 145 95 228 343 341 354 14 360
111 107 88 70 65 54 36 19 21 19 17 20 26 28 17 14 17 23 27 28 26 19 17 17 5 27 30 27 54 92 115 118 138 150 151 133 105 39 17 8 8 2 351
116 111 95 75 68 54 31 22 15 15 19 16 19 22 19 19 20 20 20 28 28 23 24 25 18 24 25 35 63 95 123 118 125 134 140 135 136 71 107 41 2 0 353
114 108 108 84 67 59 42 27 18 19 24 19 21 22 18 20 17 15 17 28 31 34 30 22 18 32 37 35 92 138 139 134 136 141 146 150 162 165 190 200 253 338 333
121 126 117 96 77 66 48 36 32 24 20 24 26 23 15 11 8 18 32 42 36 41 28 15 18 36 37 37 45 58 142 159 157 155 161 174 196 190 182 178 163 37 314
128 128 126 117 95 63 60 56 40 22 21 20 16 22 12 1 6 20 31 60 53 40 25 10 13 20 26 35 35 40 49 78 159 172 178 198 197 192 180 184 190 212 244
130 131 134 124 103 77 66 55 33 21 17 6 5 2 4 3 7 17 33 58 53 32 18 2 358 353 10 24 32 29 26 30 54 190 207 223 226 212 198 193 191 217 260
131 144 147 130 113 93 72 40 17 18 12 3 353 356 1 357 4 10 31 50 39 14 2 355 348 354 357 27 52 33 16 6 17 358 222 229 233 216 183 157 162 177 258
154 154 139 121 119 107 87 40 11 14 5 6 8 357 357 352 353 9 27 49 31 3 352 346 347 351 355 15 58 89 4 326 354 11 23 16 2 189 182 189 189 190 217
140 119 112 104 118 124 92 52 43 31 26 15 7 354 359 352 349 1 12 38 20 347 344 340 340 349 352 352 330 232 238 249 282 359 356 350 348 346 191 203 206 203 207
120 112 99 85 84 100 87 43 37 49 36 8 0 348 343 341 342 343 344 334 291 327 314 316 318 333 336 330 307 259 226 180 163 45 16 355 341 328 317 282 233 226 231
117 116 103 75 62 93 112 77 27 36 25 337 341 330 322 325 324 331 334 329 324 299 290 301 311 323 331 334 332 311 194 145 138 127 300 288 276 283 295 302 277 239 240
127 128 120 92 34 32 56 168 226 277 295 303 306 301 306 310 314 321 324 329 334 330 322 325 329 333 334 322 333 355 37 199 194 227 257 272 282 290 293 302 305 320 311
137 138 126 114 60 354 338 281 245 242 226 236 256 256 274 296 295 293 290 301 302 306 323 334 345 345 345 341 337 331 318 232 220 228 243 268 285 288 284 268 250 257 267
150 168 188 209 260 281 311 323 291 260 275 258 244 243 251 256 282 300 301 294 290 293 327 311 312 310 303 302 306 307 290 269 253 247 255 258 267 275 281 273 240 248 263
182 198 203 217 235 254 263 291 313 320 308 287 275 265 258 272 285 292 296 297 289 251 237 269 276 282 286 285 277 268 269 271 260 253 256 259 257 260 262 268 265 257 263
195 205 208 224 234 243 252 255 260 285 307 311 301 281 275 276 281 285 289 303 291 238 239 259 269 272 271 271 271 268 270 274 263 255 255 255 251 250 256 259 259 257 263
198 213 221 231 236 243 252 258 263 267 274 284 298 302 288 279 277 272 243 224 258 269 261 258 260 265 266 263 263 263 261 264 262 259 257 254 250 245 251 255 257 255 255
215 229 228 230 248 259 262 266 274 278 281 282 284 286 294 292 282 273 232 233 247 259 263 262 263 260 260 260 260 260 260 260 260 255 255 256 251 241 246 252 253 253 252
222 235 235 234 243 252 259 263 268 272 276 279 279 274 259 259 268 271 266 254 249 254 258 261 263 263 258 254 254 258 260 262 260 257 257 256 252 247 247 248 252 253 257
215 226 231 238 248 256 262 263 265 268 273 278 285 288 273 256 263 269 269 266 261 254 253 255 260 258 254 252 249 248 253 257 259 256 253 254 252 251 251 250 251 252 255
216 228 236 242 249 260 266 267 267 271 277 280 283 286 284 272 269 269 271 271 269 265 260 251 255 259 255 248 244 243 247 251 251 247 247 254 255 253 251 251 254 257 258
220 229 237 243 246 252 261 269 271 273 277 281 282 281 279 276 274 273 273 273 271 269 264 257 256 261 264 263 255 248 247 251 254 252 248 249 253 256 254 255 257 260 262
222 230 236 241 247 256 265 272 273 275 276 278 280 281 281 278 276 276 275 272 271 271 272 266 261 263 268 268 266 264 258 251 248 254 253 249 251 254 256 257 259 263 264
228 235 240 243 246 252 258 265 270 274 277 278 277 277 278 281 281 281 279 277 276 274 275 273 269 268 270 271 273 272 266 259 255 247 243 249 252 256 257 259 262 262 266